| time (UTC) | temp F | wind direction | speed MPH | gust MPH | rain 1hr in | rain 24hr in | rain mn in | humidity % | barometer mb |
| 20260903134542 | 60 | 217 | 2.0 | 5.0 | 0.00 | 0.00 | 0.00 | 89 | 1017.2 |
| 20260903133101 | 60 | 232 | 4.0 | 12.0 | 0.00 | 0.00 | 0.00 | 88 | 1016.8 |
| 20260903131553 | 61 | 232 | 5.0 | 10.0 | 0.00 | 0.00 | 0.00 | 85 | 1016.4 |
| 20260903130051 | 61 | 208 | 5.0 | 9.0 | 0.00 | 0.00 | 0.00 | 86 | 1016.3 |
| 20260903124553 | 61 | 194 | 4.0 | 8.0 | 0.00 | 0.00 | 0.00 | 89 | 1016.3 |
| 20260903123058 | 62 | 197 | 4.0 | 11.0 | 0.00 | 0.00 | 0.00 | 85 | 1016.2 |
| 20260903121546 | 63 | 337 | 2.0 | 6.0 | 0.00 | 0.00 | 0.00 | 81 | 1016.2 |
| 20260903114558 | 63 | 202 | 5.0 | 12.0 | 0.00 | 0.00 | 0.00 | 81 | 1016.4 |
| 20260903113131 | 63 | 207 | 4.0 | 9.0 | 0.00 | 0.00 | 0.00 | 81 | 1016.3 |
| 20260903111549 | 62 | 238 | 4.0 | 9.0 | 0.00 | 0.00 | 0.00 | 82 | 1016.3 |
| 20260903110100 | 62 | 189 | 3.0 | 8.0 | 0.00 | 0.00 | 0.00 | 82 | 1016.1 |
| 20260903104557 | 61 | 185 | 2.0 | 4.0 | 0.00 | 0.00 | 0.00 | 82 | 1016.3 |
| 20260903103052 | 61 | 190 | 1.0 | 2.0 | 0.00 | 0.00 | 0.00 | 81 | 1016.2 |
| 20260903101547 | 61 | 0 | 0.0 | 2.0 | 0.00 | 0.00 | 0.00 | 82 | 1016.4 |
| 20260903100047 | 61 | 220 | 1.0 | 4.0 | 0.00 | 0.00 | 0.00 | 84 | 1016.5 |
| 20260903094558 | 60 | 196 | 1.0 | 3.0 | 0.00 | 0.00 | 0.00 | 85 | 1016.6 |
| 20260903093051 | 59 | 278 | 1.0 | 3.0 | 0.00 | 0.00 | 0.00 | 87 | 1016.8 |
| 20260903091551 | 59 | 352 | 1.0 | 5.0 | 0.00 | 0.00 | 0.00 | 87 | 1016.8 |
| 20260903090050 | 59 | 346 | 2.0 | 4.0 | 0.00 | 0.00 | 0.00 | 89 | 1017.0 |
| 20260903084548 | 58 | 343 | 1.0 | 3.0 | 0.00 | 0.00 | 0.00 | 92 | 1016.9 |
| 20260903083056 | 57 | 337 | 1.0 | 4.0 | 0.00 | 0.00 | 0.00 | 92 | 1016.9 |
| 20260903081549 | 57 | 360 | 0.0 | 2.0 | 0.00 | 0.00 | 0.00 | 93 | 1017.0 |
| 20260903080049 | 56 | 352 | 2.0 | 2.0 | 0.00 | 0.00 | 0.00 | 93 | 1017.0 |
| 20260903074557 | 56 | 15 | 1.0 | 2.0 | 0.00 | 0.00 | 0.00 | 94 | 1016.9 |
| 20260903073056 | 56 | 351 | 0.0 | 2.0 | 0.00 | 0.00 | 0.00 | 93 | 1016.8 |
| 20260903071559 | 56 | 186 | 0.0 | 2.0 | 0.00 | 0.00 | 0.00 | 94 | 1016.7 |
| 20260903070047 | 56 | 0 | 0.0 | 1.0 | 0.00 | 0.00 | 0.00 | 94 | 1016.4 |
| 20260903064600 | 55 | 0 | 0.0 | 2.0 | 0.00 | 0.00 | 0.00 | 94 | 1016.2 |
| 20260903063053 | 55 | 0 | 0.0 | 2.0 | 0.00 | 0.00 | 0.00 | 94 | 1016.2 |
| 20260903061558 | 55 | 186 | 1.0 | 2.0 | 0.00 | 0.00 | 0.00 | 93 | 1016.1 |
| 20260903060104 | 55 | 194 | 1.0 | 3.0 | 0.00 | 0.00 | 0.00 | 94 | 1015.7 |
| 20260903054556 | 55 | 198 | 0.0 | 2.0 | 0.00 | 0.00 | 0.00 | 94 | 1015.5 |
| 20260903053053 | 55 | 194 | 1.0 | 4.0 | 0.00 | 0.00 | 0.00 | 94 | 1015.1 |
| 20260903051607 | 55 | 221 | 0.0 | 2.0 | 0.00 | 0.00 | 0.00 | 94 | 1014.8 |
| 20260903050055 | 55 | 196 | 0.0 | 2.0 | 0.00 | 0.00 | 0.00 | 94 | 1014.5 |
| 20260903044559 | 55 | 0 | 0.0 | 2.0 | 0.00 | 0.00 | 0.00 | 94 | 1014.2 |
| 20260903043145 | 55 | 192 | 0.0 | 2.0 | 0.00 | 0.00 | 0.00 | 94 | 1013.9 |
| 20260903041549 | 55 | 0 | 0.0 | 2.0 | 0.00 | 0.00 | 0.00 | 94 | 1014.2 |
| 20260903040047 | 55 | 192 | 1.0 | 3.0 | 0.00 | 0.00 | 0.00 | 94 | 1013.8 |
| 20260903034551 | 55 | 238 | 1.0 | 5.0 | 0.00 | 0.00 | 0.00 | 94 | 1014.4 |
| 20260903033049 | 55 | 186 | 2.0 | 3.0 | 0.00 | 0.00 | 0.00 | 94 | 1014.1 |
| 20260903031545 | 55 | 197 | 1.0 | 2.0 | 0.00 | 0.00 | 0.00 | 94 | 1013.9 |
| 20260903030046 | 55 | 202 | 1.0 | 3.0 | 0.00 | 0.00 | 0.00 | 94 | 1014.2 |
| 20260903024551 | 55 | 180 | 1.0 | 3.0 | 0.00 | 0.00 | 0.00 | 94 | 1014.3 |
| 20260903023045 | 54 | 219 | 2.0 | 5.0 | 0.00 | 0.00 | 0.00 | 94 | 1014.2 |
| 20260903021554 | 54 | 198 | 1.0 | 3.0 | 0.00 | 0.00 | 0.00 | 94 | 1014.2 |
| 20260903020055 | 54 | 221 | 1.0 | 5.0 | 0.00 | 0.00 | 0.00 | 94 | 1014.3 |
| 20260903014553 | 54 | 209 | 2.0 | 5.0 | 0.00 | 0.00 | 0.00 | 94 | 1014.5 |
| 20260903013107 | 54 | 179 | 2.0 | 6.0 | 0.00 | 0.00 | 0.00 | 94 | 1014.5 |
| 20260903011558 | 54 | 219 | 1.0 | 4.0 | 0.00 | 0.00 | 0.00 | 93 | 1014.4 |
| 20260903010056 | 54 | 180 | 3.0 | 6.0 | 0.00 | 0.00 | 0.00 | 93 | 1014.8 |
| 20260903004550 | 55 | 226 | 2.0 | 7.0 | 0.00 | 0.00 | 0.00 | 93 | 1015.0 |
| 20260903003050 | 55 | 189 | 2.0 | 4.0 | 0.00 | 0.00 | 0.00 | 93 | 1015.0 |
| 20260903001556 | 55 | 213 | 1.0 | 5.0 | 0.00 | 0.00 | 0.00 | 93 | 1015.3 |
| 20260903000056 | 55 | 180 | 1.0 | 4.0 | 0.00 | 0.00 | 0.00 | 93 | 1015.4 |
| 20260902234614 | 55 | 199 | 0.0 | 4.0 | 0.00 | 0.00 | 0.00 | 93 | 1015.5 |
| 20260902233045 | 55 | 202 | 1.0 | 4.0 | 0.00 | 0.00 | 0.00 | 92 | 1016.0 |
| 20260902231553 | 55 | 246 | 1.0 | 2.0 | 0.00 | 0.00 | 0.00 | 92 | 1016.1 |
| 20260902230050 | 55 | 229 | 1.0 | 2.0 | 0.00 | 0.00 | 0.00 | 92 | 1017.2 |
| 20260902224610 | 55 | 209 | 2.0 | 6.0 | 0.00 | 0.00 | 0.00 | 92 | 1017.1 |
| 20260902223051 | 55 | 167 | 2.0 | 8.0 | 0.00 | 0.00 | 0.00 | 91 | 1017.5 |
| 20260902221602 | 55 | 213 | 2.0 | 5.0 | 0.00 | 0.00 | 0.00 | 91 | 1017.8 |
| 20260902220050 | 55 | 205 | 2.0 | 4.0 | 0.00 | 0.00 | 0.00 | 91 | 1017.9 |
| 20260902214601 | 55 | 165 | 1.0 | 5.0 | 0.00 | 0.00 | 0.00 | 91 | 1018.0 |
| 20260902213050 | 55 | 196 | 2.0 | 6.0 | 0.00 | 0.00 | 0.00 | 90 | 1018.3 |
| 20260902211547 | 55 | 209 | 0.0 | 4.0 | 0.00 | 0.00 | 0.00 | 90 | 1018.4 |
| 20260902210057 | 55 | 210 | 1.0 | 6.0 | 0.00 | 0.00 | 0.00 | 89 | 1018.4 |
| 20260902204555 | 55 | 188 | 4.0 | 7.0 | 0.00 | 0.00 | 0.00 | 89 | 1018.7 |
| 20260902203049 | 56 | 196 | 3.0 | 5.0 | 0.00 | 0.00 | 0.00 | 88 | 1018.9 |
| 20260902201603 | 56 | 138 | 2.0 | 6.0 | 0.00 | 0.00 | 0.00 | 87 | 1018.9 |
| 20260902200132 | 57 | 160 | 1.0 | 2.0 | 0.00 | 0.00 | 0.00 | 87 | 1018.8 |
| 20260902194555 | 57 | 180 | 3.0 | 7.0 | 0.00 | 0.00 | 0.00 | 86 | 1018.3 |
| 20260902193051 | 58 | 0 | 0.0 | 2.0 | 0.00 | 0.00 | 0.00 | 86 | 1018.6 |
| 20260902191550 | 58 | 181 | 0.0 | 2.0 | 0.00 | 0.00 | 0.00 | 84 | 1019.0 |
| 20260902190103 | 58 | 212 | 0.0 | 2.0 | 0.00 | 0.00 | 0.00 | 82 | 1019.3 |
| 20260902184557 | 59 | 0 | 0.0 | 2.0 | 0.00 | 0.00 | 0.00 | 81 | 1019.4 |
| 20260902183057 | 59 | 224 | 0.0 | 2.0 | 0.00 | 0.00 | 0.00 | 80 | 1019.7 |
| 20260902181549 | 59 | 0 | 0.0 | 2.0 | 0.00 | 0.00 | 0.00 | 78 | 1019.7 |
| 20260902180117 | 60 | 345 | 0.0 | 2.0 | 0.00 | 0.00 | 0.00 | 77 | 1019.7 |
| 20260902174555 | 60 | 351 | 0.0 | 2.0 | 0.00 | 0.00 | 0.00 | 76 | 1019.8 |
| 20260902173047 | 60 | 0 | 0.0 | 2.0 | 0.00 | 0.00 | 0.00 | 77 | 1019.5 |
| 20260902171601 | 61 | 0 | 0.0 | 3.0 | 0.00 | 0.00 | 0.00 | 77 | 1019.7 |
| 20260902170103 | 61 | 260 | 0.0 | 2.0 | 0.00 | 0.00 | 0.00 | 76 | 1019.5 |
| 20260902164559 | 61 | 0 | 0.0 | 3.0 | 0.00 | 0.00 | 0.00 | 75 | 1019.5 |
| 20260902163058 | 62 | 231 | 0.0 | 2.0 | 0.00 | 0.00 | 0.00 | 74 | 1019.6 |
| 20260902161554 | 62 | 292 | 0.0 | 6.0 | 0.00 | 0.00 | 0.00 | 74 | 1019.0 |
| 20260902160106 | 64 | 213 | 1.0 | 3.0 | 0.00 | 0.00 | 0.00 | 72 | 1019.6 |
| 20260902154556 | 65 | 210 | 2.0 | 4.0 | 0.00 | 0.00 | 0.00 | 70 | 1019.6 |
| 20260902153054 | 66 | 198 | 2.0 | 5.0 | 0.00 | 0.00 | 0.00 | 69 | 1019.3 |
| 20260902151553 | 66 | 168 | 3.0 | 7.0 | 0.00 | 0.00 | 0.00 | 70 | 1018.7 |
| 20260902150049 | 67 | 236 | 1.0 | 7.0 | 0.00 | 0.00 | 0.00 | 66 | 1019.5 |
| 20260902144558 | 68 | 16 | 3.0 | 8.0 | 0.00 | 0.00 | 0.00 | 64 | 1018.8 |
| 20260902143057 | 68 | 213 | 4.0 | 9.0 | 0.00 | 0.00 | 0.00 | 64 | 1019.5 |
| 20260902141550 | 68 | 200 | 5.0 | 10.0 | 0.00 | 0.00 | 0.00 | 66 | 1019.4 |
| 20260902140048 | 69 | 214 | 4.0 | 9.0 | 0.00 | 0.00 | 0.00 | 64 | 1019.4 |